CAPE
0 0 0 1 1 1 1 0 0 0 0 1 1 18 49 47 63 67 43 16 12 8 6 0 0 0 0 0 0 0 0 0
0 0 0 1 1 0 0 0 0 0 0 0 0 4 5 21 38 35 31 33 26 24 32 48 52 19 6 0 0 0 0 0
0 2 4 0 0 0 1 1 0 0 0 0 7 5 20 46 53 67 83 87 106 135 163 123 101 72 40 38 22 0 0 0
0 1 2 2 0 0 0 0 0 0 0 0 0 0 2 29 22 20 4 16 31 59 95 79 121 59 62 25 1 0 4 0
0 0 0 2 0 0 0 0 0 0 0 0 0 0 1 3 3 21 26 31 8 6 3 7 3 23 24 29 1 0 0 0
0 0 0 0 0 0 0 0 0 0 0 0 0 0 0 0 0 14 15 2 1 0 1 0 0 9 29 7 0 0 0 0
0 0 0 0 0 0 0 0 0 0 0 0 0 0 0 0 0 0 0 0 0 0 0 0 0 1 9 1 1 0 0 0
0 0 0 0 0 0 0 0 0 0 0 0 0 0 0 0 0 0 0 0 0 0 0 0 0 0 0 0 7 6 8 0
0 0 0 0 0 0 0 0 0 0 0 0 0 0 0 0 0 0 0 0 0 0 0 0 1 4 4 0 3 0 0 0
0 0 0 0 0 0 0 0 0 0 0 0 0 0 0 0 0 0 0 0 0 0 0 0 0 0 0 0 0 0 0 0
0 0 0 0 0 0 0 0 0 0 0 0 0 0 0 0 0 0 0 0 0 0 0 0 0 0 0 0 0 0 0 0
0 0 0 0 0 0 0 0 0 0 0 0 0 0 0 0 0 0 0 0 0 0 0 0 0 4 0 0 0 0 0 0
0 0 0 0 0 0 0 0 0 0 0 0 0 0 0 0 0 0 0 0 0 0 0 0 0 2 0 0 0 0 0 0
0 0 1 2 0 0 0 0 0 0 0 0 0 0 0 0 0 0 0 0 0 0 0 2 15 0 0 0 0 0 0 0
0 0 0 16 7 0 0 0 0 0 0 0 0 0 0 0 0 0 0 0 0 0 0 0 0 0 0 0 0 0 0 0
0 0 0 1 9 2 0 0 0 0 0 0 0 0 0 0 0 0 0 0 0 0 0 0 0 0 0 0 1 1 1 1
0 0 0 0 0 3 2 1 0 0 0 0 0 0 0 0 0 0 0 0 0 6 0 0 0 0 0 0 0 1 1 1
0 0 0 0 0 3 20 16 7 21 14 4 0 0 0 0 0 0 0 1 0 0 0 0 0 0 0 1 1 0 2 1
0 0 0 0 0 0 2 1 11 29 25 23 7 0 0 0 0 0 0 0 0 0 0 1 1 2 2 2 1 0 0 0
CIN
-0 -1 -0 -0 -0 -0 -0 -0 -0 -0 -0 -6 -4 -72 -98 -104 -88 -97 -137 -143 -154 -154 -171 -61 -0 -0 -0 -0 -0 -0 -0 -0
-0 -0 -0 -0 -0 -0 -0 -0 -0 -0 -0 -0 -0 -50 -92 -91 -115 -112 -100 -117 -131 -144 -132 -128 -151 -158 -171 -0 -0 -0 -0 -0
-0 -0 -0 -0 -0 -0 -0 -0 -0 -0 -0 -11 -28 -59 -80 -78 -87 -72 -60 -90 -80 -62 -86 -108 -119 -98 -138 -133 -133 -0 -0 -0
-0 -0 -0 -0 -0 -0 -0 -0 -0 -0 -0 -0 -0 -0 -37 -49 -53 -56 -33 -48 -56 -82 -77 -59 -75 -94 -97 -126 -77 -0 -70 -0
-0 -0 -0 -0 -0 -0 -0 -0 -0 -0 -0 -0 -0 -0 -5 -45 -42 -52 -53 -40 -68 -76 -15 -90 -95 -136 -133 -119 -18 -0 -0 -0
-0 -0 -0 -0 -0 -0 -0 -0 -0 -0 -0 -0 -0 -0 -0 -0 -0 -33 -55 -65 -78 -0 -68 -0 -0 -155 -142 -135 -7 -0 -0 -0
-0 -0 -0 -0 -0 -0 -0 -0 -0 -0 -0 -0 -0 -0 -0 -0 -0 -0 -0 -0 -0 -0 -0 -0 -0 -108 -147 -102 -92 -0 -0 -0
-0 -0 -0 -0 -0 -0 -0 -0 -0 -0 -0 -0 -0 -0 -0 -0 -0 -0 -0 -0 -0 -0 -0 -0 -0 -0 -0 -0 -135 -101 -80 -16
-0 -0 -0 -0 -0 -0 -0 -0 -0 -0 -0 -0 -0 -0 -0 -0 -0 -0 -0 -0 -0 -0 -0 -0 -117 -129 -119 -19 -126 -10 -0 -0
-0 -0 -0 -0 -0 -0 -0 -0 -0 -0 -0 -0 -0 -0 -0 -0 -0 -0 -0 -0 -0 -0 -0 -0 -0 -0 -0 -0 -0 -0 -0 -0
-0 -163 -0 -0 -0 -0 -0 -0 -0 -0 -0 -0 -0 -0 -0 -0 -0 -0 -0 -0 -0 -0 -0 -0 -0 -0 -0 -0 -0 -0 -0 -0
-0 -0 -0 -0 -0 -0 -0 -0 -0 -0 -0 -0 -0 -0 -0 -0 -0 -0 -0 -0 -0 -0 -0 -0 -0 -144 -0 -0 -0 -0 -0 -0
-0 -0 -0 -0 -0 -0 -0 -0 -0 -0 -0 -0 -0 -0 -0 -0 -0 -0 -0 -0 -0 -0 -0 -0 -29 -111 -0 -0 -0 -0 -0 -0
-0 -0 -415 -528 -0 -0 -0 -0 -0 -0 -0 -0 -0 -0 -0 -0 -0 -0 -0 -0 -0 -0 -0 -63 -98 -0 -0 -0 -0 -0 -0 -0
-0 -0 -0 -433 -542 -0 -0 -0 -0 -0 -0 -0 -0 -0 -0 -0 -0 -0 -0 -0 -0 -0 -0 -0 -65 -0 -0 -0 -0 -0 -0 -0
-0 -0 -0 -92 -425 -377 -0 -0 -0 -0 -0 -0 -0 -0 -0 -0 -0 -0 -0 -0 -0 -0 -13 -0 -0 -0 -0 -0 -0 -0 -0 -0
-0 -0 -0 -0 -0 -244 -401 -323 -9 -0 -0 -0 -0 -0 -0 -0 -0 -0 -0 -0 -2 -153 -0 -0 -0 -0 -0 -0 -0 -0 -0 -0
-0 -0 -0 -0 -0 -151 -291 -315 -548 -552 -558 -453 -0 -0 -0 -0 -0 -0 -1 -72 -0 -0 -0 -0 -0 -0 -0 -0 -0 -0 -0 -0
-0 -0 -0 -0 -0 -0 -366 -321 -457 -447 -453 -471 -502 -0 -0 -0 -0 -0 -0 -0 -0 -0 -0 -0 -0 -0 -0 -0 -0 -0 -0 -0
Wind_Speed
13 15 16 8 3 6 6 3 5 7 4 6 8 7 11 12 13 15 15 13 10 9 7 5 8 7 7 7 9 14 17 16
13 14 17 15 5 2 6 6 11 7 9 10 9 9 11 10 15 13 13 12 13 12 7 8 12 13 4 3 10 17 19 16
12 13 15 17 15 4 2 5 7 14 8 9 11 13 14 12 13 12 14 16 16 16 10 13 25 16 16 15 13 15 13 12
13 13 15 17 19 19 16 11 12 12 9 10 11 13 15 17 17 18 18 19 25 26 20 25 25 27 22 15 7 8 10 12
13 13 14 17 19 19 20 21 23 24 23 13 11 12 13 24 20 22 19 27 41 32 33 34 32 29 21 8 11 14 14 12
14 13 14 16 17 18 20 21 23 25 29 32 34 36 29 21 19 37 40 43 40 37 39 37 33 30 25 18 18 13 14 17
14 14 13 16 16 17 18 21 23 24 26 28 31 33 30 30 28 25 36 41 44 40 39 37 37 21 20 22 19 19 20 19
13 15 16 16 18 20 19 20 22 22 23 26 27 29 29 30 30 30 32 38 43 43 41 40 40 37 28 11 11 22 23 22
16 16 16 16 17 18 19 20 21 21 22 24 24 22 23 24 24 23 29 37 36 43 43 42 41 41 42 18 18 16 10 14
15 14 14 14 14 17 18 17 18 17 19 21 23 23 22 18 18 19 21 22 23 18 35 36 39 33 19 18 19 18 17 17
8 9 11 12 11 12 15 16 16 16 16 17 17 17 17 15 15 20 20 19 15 14 16 25 24 29 29 26 26 23 20 18
7 10 13 12 9 13 16 16 15 16 16 17 17 17 15 15 16 15 15 15 16 17 19 22 25 24 21 20 24 20 20 19
0 1 2 4 7 8 14 14 17 18 15 15 17 14 15 20 22 22 19 19 21 22 27 23 27 29 25 17 25 20 19 19
11 9 3 4 5 6 8 11 18 15 14 14 15 19 21 21 19 19 17 17 21 26 22 23 24 19 19 15 17 20 18 20
9 6 6 6 5 5 5 8 10 9 11 14 15 18 19 20 17 17 17 17 18 19 14 14 14 16 19 18 19 18 19 18
21 7 8 6 6 7 7 7 7 6 7 10 15 17 17 17 18 19 19 16 16 17 20 20 18 18 18 18 17 18 17 18
16 10 12 10 9 10 10 10 10 7 7 9 9 11 15 17 18 19 19 20 18 17 17 17 17 15 14 15 16 16 17 17
17 13 13 12 12 12 11 11 13 11 9 10 10 10 11 13 14 16 17 19 19 17 16 15 14 15 14 14 15 17 17 17
21 18 15 12 12 13 12 14 14 13 12 11 12 11 11 12 12 13 15 17 16 18 17 17 18 18 14 14 14 16 15 14
Wind_Direction
81 60 33 360 283 245 249 228 229 203 198 181 204 192 206 179 190 183 189 189 199 227 221 230 265 260 273 290 299 285 281 286
73 71 69 63 58 196 246 226 246 180 172 175 204 206 212 204 215 195 208 217 228 242 231 259 255 263 248 283 297 285 282 292
99 87 97 102 95 52 279 227 196 240 206 198 231 230 227 218 218 208 212 237 248 255 251 251 248 266 270 278 290 292 298 295
123 111 113 113 121 124 124 123 143 163 207 209 236 235 242 232 229 232 234 243 251 249 253 249 250 251 270 286 286 288 292 293
130 120 120 126 131 127 131 139 147 153 159 166 210 223 224 238 230 239 240 237 214 240 234 232 241 255 279 284 288 290 292 286
143 133 128 130 125 128 133 136 142 148 160 168 173 177 166 159 168 187 195 212 218 231 227 234 251 266 279 290 292 283 284 289
149 141 127 136 128 127 131 140 146 149 152 159 168 173 169 170 170 170 186 203 219 235 241 247 254 231 285 290 289 291 290 285
150 147 147 142 147 146 144 147 152 154 156 163 168 172 175 179 181 185 190 201 219 223 235 236 237 230 221 269 272 293 293 280
166 162 157 155 155 156 154 155 157 158 163 169 171 174 178 184 186 189 194 204 206 234 244 250 256 249 264 283 287 291 276 285
169 164 163 162 161 165 165 162 163 163 168 172 178 181 182 185 189 191 194 198 201 208 264 270 271 282 289 284 285 286 290 294
164 172 174 176 176 173 173 175 176 175 176 180 184 188 192 198 200 201 203 206 222 238 264 280 284 286 286 286 285 284 285 292
174 177 180 184 189 184 184 184 185 188 192 193 194 199 208 210 219 234 231 240 248 259 269 281 285 285 284 279 283 279 280 287
223 265 169 180 191 203 199 200 198 200 203 208 212 228 224 218 218 216 257 254 268 270 279 274 281 281 277 275 281 283 283 284
298 296 242 229 248 240 231 214 206 212 215 218 221 216 215 215 216 218 241 247 267 277 266 275 275 276 277 267 276 284 286 285
295 280 272 272 231 219 207 206 206 230 232 232 234 227 226 227 236 236 237 247 250 243 250 241 252 274 276 278 283 285 290 289
299 258 214 252 230 244 248 229 241 238 245 246 234 238 239 245 246 246 252 254 249 253 260 268 271 274 276 278 279 286 289 291
294 266 273 238 243 230 237 253 269 249 251 239 245 258 253 245 250 254 255 258 264 269 268 267 269 270 268 268 280 285 289 289
282 266 247 236 240 227 234 241 275 272 257 268 276 271 258 255 260 262 257 261 269 269 268 265 268 277 273 276 286 291 290 292
286 280 265 251 243 243 251 273 271 274 277 282 288 290 277 279 270 265 274 278 270 272 275 279 280 283 279 282 290 294 295 296